Showing default

INTELSAT 4-F5, 6052

Orbit data source: Space-Track

INTELSAT 4-F5, 6052 is a payload satellite owned by INTELSAT (US) in GEO that was launched on Tue, 13 Jun 1972 UTC via an ATLAS SLV-3C CENTAUR launch vehicle from the Air Force Eastern Test Range (AFETR). Payload-class satellites include a variety of spacecraft equipped with specific instruments for various scientific and technological missions. These include communications satellites like Starlink; space stations such as the ISS; scientific satellites like the Hubble; Earth observation satellites from companies like Planet Labs, Umbra, and HawkEye 360; GPS; miniature CubeSats for education and research; and military/defense satellites.

Not visible in the next 10 days
Identifier
6052, 1972-041A
Orbit
GEO
Country
Flag of UnknownUnknown / ITSO
Related business
Manufacturer
Hughes
Mission
Non-operational Civil Communications
Bus & Motor
HS-312, SVM-4A
Mass
1,416 kg wet, 539 kg dry
Launch date (UTC)
1972-06-13 (53 years ago)
Launch vehicle
ATLAS SLV-3C CENTAUR
Launch site
Air Force Eastern Test Range (AFETR)
Object type
Payload
Rocket body
Debris
Shape & HBR
Cyl, 1.4 m
Radar Cross Section
7.537 m², Medium (>0.1 m² and < 1m²)

Expand to show TLE details & history
Last TLE update: 1 day ago

TLE from 1 day ago
0 INTELSAT 4-F5
1 06052U 72041A   25244.89483428 -.00000131  00000-0  00000-0 0  9996
2 06052   6.4449 289.6137 0004506 269.1861  90.7608  1.00132137 43775
Epoch: 2025-09-01T21:28Z
TLE epoch observation values (Epoch: 2025-09-01T21:28:33.681Z)
Latitude
-0°
Longitude
-13.81806°
Altitude
35,825.632 km
Speed
3.073 km/s
True Right ascension
19h 18m 27s
True Declination
0° 00' 00"
Sunlit
Object was in daylight at epoch
Visualization orbit readout
Latitude
Unknown
Longitude
Unknown
Altitude
Unknown
Speed
Unknown
Apparent Right ascension
Unknown
Apparent Declination
Unknown
Sunlit
N/A
Visualization observer readout
Local Sidereal Time
23:01:08
Azimuth
Unknown
Elevation
Unknown
Doppler factor
Unknown
Orbital elements
Apogee altitude
35,845.856 km
Perigee altitude
35,807.821 km
Semi-major axis
42,204.976 km
Eccentricity
0.00045
Inclination
6.4449°
RAAN
289.6137°
Arg. of periapsis
269.1861°
True anomaly
90.81243°
Mean anomaly
90.7608°
Eccentric anomaly
90.78662°
Mean motion
0.25032 °/min
Orbital period
1,438.15 mins
BSTAR
0
Loading maneuver chart data...
Computing Atmospheric mass density...
Loading historical data...
Loading historical data...
Loading historical data...
Loading historical data...
Loading historical data...
Loading historical data...
Loading historical data...
Other satellites on launch #41 in the year 1972 (1972-06-13 UTC)

Documentation

Showing up to 5 results
|